Regional Weather Roundup
Issued by NWS

Home | Current Version | Previous Version | Text Only | Print | Product List | Glossary On
Versions: 1 2 3 4 5 6 7 8 9 10 11 12 13 14 15 16 17 18 19 20 21 22 23 24 25 26 27 28 29 30 31 32 33 34 35 36 37 38 39 40 41 42 43 44 45 46 47 48 49 50
000
ASUS44 KLIX 240512
RWRLA
LOUISIANA WEATHER ROUNDUP
NATIONAL WEATHER SERVICE NEW ORLEANS LA
1200 AM CDT SUN MAY 24 2015

NOTE: "FAIR" INDICATES FEW OR NO CLOUDS BELOW 12,000 FEET WITH NO
      SIGNIFICANT WEATHER AND/OR OBSTRUCTIONS TO VISIBILITY.
      SKY/WX - SKY CONDITION AND SIGNIFICANT WEATHER.
      TMP - AIR TEMPERATURE.    DP   - DEWPOINT TEMPERATURE.
      RH  - RELATIVE HUMIDITY.  PRES - PRESSURE.
      HX  - HEAT INDEX.         WCI  - WIND CHILL INDEX.

*  THESE STATIONS ARE NOT NWS OR FAA STATIONS AND ARE NOT UNDER
   NWS QUALITY CONTROL.

LAZ040-048-061>063-065-066-069-240600-
SOUTHEAST LOUISIANA

CITY           SKY/WX    TMP DP  RH WIND       PRES   REMARKS
N.O. AUDUBON     N/A     78  73  84 MISG        N/A
N.O. INTL ARPT MOCLDY    76  70  82 S6        30.11S
N.O. LAKEFRONT PTCLDY    81  70  69 SE12      30.12S
SLIDELL        PTCLDY    72  71  97 E3        30.12S
BATON ROUGE    PTCLDY    75  71  87 E6        30.11R
BOOTHVILLE     CLEAR     78  74  87 SE6       30.13S
BELLE CHASSE   CLOUDY    78  72  81 SE8       30.11R
BOGALUSA*        N/A     74  68  80 CALM      30.15R
GALLIANO*      PTCLDY    80  73  78 SE3       30.11F
NEW ROADS*     FAIR      73  72  94 SE3       30.10S
GONZALES*      FAIR      75  75  99 E5        30.10S
HAMMOND*       PTCLDY    75  68  78 E5        30.13F
HOUMA*         PTCLDY    77  73  88 SE7       30.11S
PORT FOURCHON* PTCLDY    81  73  78 SE14      30.11F

$$

LAZ041-044-053-054-240600-
SOUTHWEST LOUISIANA

CITY           SKY/WX    TMP DP  RH WIND       PRES   REMARKS
LAKE CHARLES   PTCLDY    75  73  93 SE6       30.05S
LAFAYETTE      PTCLDY    74  72  93 SE3       30.08F
PATTERSON      PTCLDY    75  72  88 SE6       30.11S
SALT POINT       N/A     78  74  87 SE8       30.08R
NEW IBERIA     PTCLDY    76  72  87 SE7       30.09S
CHENAULT AIRPK PTCLDY    75  73  94 SE7       30.06S

$$

LAZ027-028-240600-
CENTRAL LOUISIANA

CITY           SKY/WX    TMP DP  RH WIND       PRES   REMARKS
FORT POLK      PTCLDY    73  71  93 SE8       30.06S
ALEXANDRIA INT PTCLDY    73  70  90 SE5       30.05S
ALEXANDRIA     CLEAR     73  70  90 E3        30.08S

$$

LAZ001-002-240600-
NORTHWEST LOUISIANA

CITY           SKY/WX    TMP DP  RH WIND       PRES   REMARKS
SHREVEPORT     MOCLDY    75  70  84 S12       30.03R
BARKSDALE AFB  NOT AVBL
DTN SHREVEPORT MOCLDY    74  69  85 SE10      30.03S

$$

LAZ014-016-240600-
NORTHEAST LOUISIANA

CITY           SKY/WX    TMP DP  RH WIND       PRES   REMARKS
MONROE         MOCLDY    75  70  84 VRB5      30.08F
TALLULAH       PTCLDY    76  67  73 S9        30.10F

$$



USA.gov is the U.S. government's official web portal to all federal, state and local government web resources and services.